This is the latest recevied weather packets stored in our database for station/object KJ5SC. If no packets are shown the sender has not sent any weather packets the latest 10 day(s).
| Time | Temp. | Humidity | Pressure | Rain* | Wind** | Luminosity | Snow |
|---|---|---|---|---|---|---|---|
| 1787788776 | 35.56° C | 44% | 1014.5 hPa | 0 mm | - | 24 W/m² | - |
| 1787788471 | 35.56° C | 43% | 1014.7 hPa | 0 mm | - | 26 W/m² | - |
| 1787788165 | 36.11° C | 43% | 1014.6 hPa | 0 mm | - | 29 W/m² | - |
| 1787787861 | 36.11° C | 43% | 1014.7 hPa | 0 mm | - | 32 W/m² | - |
| 1787787560 | 36.67° C | 42% | 1014.8 hPa | 0 mm | - | 35 W/m² | - |
| 1787787254 | 36.67° C | 42% | 1014.8 hPa | 0 mm | - | 39 W/m² | - |
| 1787786954 | 36.67° C | 42% | 1014.7 hPa | 0 mm | - | 41 W/m² | - |
| 1787786649 | 36.67° C | 42% | 1014.8 hPa | 0 mm | - | 44 W/m² | - |
| 1787786348 | 36.67° C | 41% | 1014.8 hPa | 0 mm | - | 45 W/m² | - |
| 1787786045 | 36.67° C | 42% | 1014.8 hPa | 0 mm | - | 47 W/m² | - |
| 1787785740 | 37.22° C | 40% | 1014.7 hPa | 0 mm | - | 49 W/m² | - |
| 1787785435 | 37.22° C | 41% | 1014.9 hPa | 0 mm | - | 56 W/m² | - |
| 1787785134 | 37.22° C | 40% | 1014.9 hPa | 0 mm | - | 53 W/m² | - |
| 1787784830 | 37.22° C | 40% | 1014.9 hPa | 0 mm | - | 54 W/m² | - |
| 1787784529 | 37.22° C | 40% | 1015.1 hPa | 0 mm | - | 76 W/m² | - |
| 1787784223 | 37.78° C | 41% | 1014.9 hPa | 0 mm | - | 64 W/m² | - |
| 1787783919 | 37.78° C | 39% | 1015.2 hPa | 0 mm | - | 78 W/m² | - |
| 1787783615 | 37.78° C | 40% | 1015.4 hPa | 0 mm | - | 78 W/m² | - |
| 1787783313 | 37.78° C | 39% | 1015.3 hPa | 0 mm | - | 87 W/m² | - |
| 1787783010 | 37.78° C | 39% | 1015.3 hPa | 0 mm | - | 100 W/m² | - |
| 1787782708 | 37.78° C | 39% | 1015.4 hPa | 0 mm | - | 102 W/m² | - |
| 1787782404 | 37.78° C | 39% | 1015.5 hPa | 0 mm | - | 93 W/m² | - |
| 1787782100 | 37.78° C | 39% | 1015.6 hPa | 0 mm | - | 83 W/m² | - |
| 1787781795 | 37.78° C | 39% | 1015.6 hPa | 0 mm | - | 82 W/m² | - |
| 1787781493 | 37.78° C | 40% | 1015.5 hPa | 0 mm | - | 84 W/m² | - |
* Rain latest hour (hover to see other rain measurements)
** Current wind speed in m/s (hover to see current wind gust speed)